TimeCDT,TemperatureF,Dew PointF,Humidity,Sea Level PressureIn,VisibilityMPH,Wind Direction,Wind SpeedMPH,Gust SpeedMPH,PrecipitationIn,Events,Conditions,WindDirDegrees,DateUTC
12:53 AM,62.1,54.0,75,29.88,-9999.0,East,3.5,-,N/A,,Clear,100,2012-10-10 05:53:00
1:53 AM,60.1,53.1,78,29.87,-9999.0,East,3.5,-,N/A,,Clear,100,2012-10-10 06:53:00
2:53 AM,57.0,52.0,83,29.88,-9999.0,ENE,3.5,-,N/A,,Clear,60,2012-10-10 07:53:00
3:53 AM,57.9,54.0,87,29.88,-9999.0,East,3.5,-,N/A,,Clear,90,2012-10-10 08:53:00
4:53 AM,57.9,55.0,90,29.89,-9999.0,ENE,3.5,-,N/A,,Clear,60,2012-10-10 09:53:00
5:53 AM,59.0,57.0,93,29.93,-9999.0,NNE,8.1,-,N/A,,Clear,30,2012-10-10 10:53:00
6:53 AM,55.9,51.1,84,29.97,-9999.0,NNE,11.5,-,N/A,,Clear,30,2012-10-10 11:53:00
7:53 AM,55.9,46.0,69,30.03,-9999.0,NNE,11.5,-,N/A,,Clear,20,2012-10-10 12:53:00
8:53 AM,55.9,45.0,67,30.08,-9999.0,NNE,13.8,-,N/A,,Clear,20,2012-10-10 13:53:00
9:39 AM,57.2,44.6,63,30.19,-9999.0,NNE,17.3,24.2,N/A,,Mostly Cloudy,30,2012-10-10 14:39:00
9:53 AM,57.0,44.1,62,30.11,-9999.0,NNE,15.0,-,N/A,,Overcast,20,2012-10-10 14:53:00
10:53 AM,57.9,44.1,60,30.14,-9999.0,NNE,13.8,-,N/A,,Overcast,20,2012-10-10 15:53:00
11:53 AM,60.1,46.0,60,30.14,-9999.0,NNE,13.8,-,N/A,,Overcast,20,2012-10-10 16:53:00
12:53 PM,63.0,46.9,56,30.13,10.0,NNE,9.2,-,N/A,,Overcast,20,2012-10-10 17:53:00
1:53 PM,66.0,48.9,54,30.10,10.0,NE,8.1,-,N/A,,Overcast,50,2012-10-10 18:53:00
2:08 PM,64.4,50.0,59,30.17,10.0,NE,6.9,-,N/A,,Overcast,50,2012-10-10 19:08:00
2:53 PM,66.9,51.1,57,30.06,10.0,Variable,3.5,-,N/A,,Overcast,0,2012-10-10 19:53:00
3:53 PM,71.1,52.0,51,30.02,10.0,East,9.2,-,N/A,,Partly Cloudy,90,2012-10-10 20:53:00
4:53 PM,70.0,53.1,55,30.01,10.0,Variable,6.9,-,N/A,,Clear,0,2012-10-10 21:53:00
5:53 PM,71.1,53.1,53,29.99,10.0,ESE,5.8,-,N/A,,Clear,110,2012-10-10 22:53:00
6:53 PM,69.1,53.1,57,30.00,10.0,SE,11.5,-,N/A,,Clear,140,2012-10-10 23:53:00
7:53 PM,64.9,54.0,68,30.01,10.0,SE,5.8,-,N/A,,Clear,140,2012-10-11 00:53:00
8:53 PM,63.0,54.0,72,30.02,10.0,ESE,4.6,-,N/A,,Clear,120,2012-10-11 01:53:00
9:53 PM,61.0,54.0,78,30.03,10.0,East,3.5,-,N/A,,Clear,100,2012-10-11 02:53:00
10:53 PM,61.0,54.0,78,30.04,10.0,East,4.6,-,N/A,,Clear,90,2012-10-11 03:53:00
11:53 PM,59.0,54.0,83,30.03,10.0,East,5.8,-,N/A,,Clear,80,2012-10-11 04:53:00